Lid_Strength_Index
10 10 10 10 9 9 10 9 9 8 7 7 6 6 6 5 5 5 4 4 3 2 -2 -2 -2 -2 -2 -2 -1 -1 -1 -1 -1 -1 -1 -1 -1 -1 -1 -1 -1 -2 -2
11 11 11 11 10 10 10 10 10 9 8 7 7 7 6 6 6 5 5 4 3 2 2 -2 -2 -2 -2 -2 -2 -1 -1 -1 -1 -1 -1 -1 -1 -1 -1 -1 -1 -2 -1
12 12 12 11 11 11 11 10 10 10 9 9 8 8 7 6 6 6 5 5 4 3 2 2 -0 -2 -2 -2 -2 -2 -1 -1 -1 -1 -1 -1 -1 -1 -1 -1 -1 -1 -1
12 13 12 12 12 12 11 11 11 11 10 10 9 9 8 7 6 6 5 4 4 4 3 2 -0 -2 -2 -2 -2 -2 -1 -1 -1 -1 -1 -1 -1 -1 -1 -1 -1 -1 -1
13 13 13 12 12 12 12 12 11 11 11 10 10 9 8 8 7 6 5 5 5 4 4 3 2 2 -1 -2 -2 -2 -2 -1 -1 -1 -1 -1 -1 -1 -1 -0 -1 -0 -1
14 14 13 13 12 13 12 12 12 11 11 10 10 11 9 7 6 6 6 6 5 5 4 4 2 3 1 -1 -1 -2 -2 -1 -1 -1 -1 -1 -1 -1 -1 -0 -0 -1 -1
14 14 14 13 13 13 13 13 12 12 11 11 12 10 10 8 7 6 6 5 5 4 4 3 2 2 1 -1 -1 -1 -2 -2 -1 -1 -1 -1 -1 -1 -1 -1 -1 -1 -0
14 15 14 14 14 14 13 13 13 13 12 11 12 12 12 10 6 7 7 7 5 4 4 3 2 1 0 -1 -1 -1 -1 -2 -1 -1 -1 -1 -1 -1 -1 -1 -1 -1 -1
14 15 15 14 14 14 14 13 13 13 14 12 11 12 13 13 11 8 7 7 6 5 4 4 3 1 -0 -1 -1 -1 -0 -1 -1 -1 -1 -0 -1 -1 -1 -1 -1 -1 -1
15 15 15 14 14 14 14 14 14 14 13 14 12 11 10 11 12 12 9 8 7 7 5 4 3 3 2 1 1 1 1 0 0 -0 -0 -0 -0 -1 -1 -1 -1 -0 -1
15 15 15 15 15 14 14 14 14 14 13 14 13 13 12 11 11 12 13 11 9 7 6 5 3 3 3 1 2 2 2 1 1 1 0 0 0 -0 -0 -1 -1 -1 -1
16 15 16 16 15 15 15 15 14 14 14 14 13 13 13 13 13 12 12 12 11 10 8 6 5 3 2 2 3 4 3 3 1 1 1 1 1 1 -0 -0 -1 -1 -0
17 16 16 16 16 16 15 15 15 15 15 14 14 14 12 12 12 12 12 12 13 10 8 6 5 4 2 1 1 4 4 3 3 1 1 2 1 1 1 3 0 0 0
17 17 17 17 17 17 16 16 15 15 15 15 14 14 13 13 12 12 12 12 13 12 10 10 6 5 3 2 3 4 3 4 4 3 1 1 1 1 2 0 0 1 1
18 18 18 18 18 17 17 16 16 16 16 15 14 14 13 13 12 12 12 12 13 16 15 11 9 4 3 2 2 1 2 3 3 3 2 2 2 2 1 0 1 1 1
19 19 19 19 19 18 18 17 17 17 16 15 15 15 14 13 13 12 12 11 10 10 14 10 10 8 5 4 3 2 2 4 4 5 4 2 3 2 2 2 1 1 1
20 20 20 20 20 20 19 18 18 18 18 17 16 16 15 14 14 13 11 10 9 10 12 13 10 6 7 5 3 2 3 3 4 5 6 2 3 3 3 2 1 1 2
21 21 21 21 21 21 20 20 20 20 20 19 18 18 17 16 16 13 12 11 12 11 11 14 9 8 8 6 3 4 3 3 4 5 6 3 3 4 3 3 3 3 3
22 22 22 22 22 22 22 21 21 21 21 20 20 19 19 18 16 14 14 14 12 12 11 13 12 8 8 5 3 4 5 5 6 6 6 6 4 4 3 3 4 3 4
23 23 23 23 23 22 22 22 22 21 21 20 19 19 18 18 16 16 15 15 13 14 13 14 14 10 9 5 3 5 6 6 8 6 6 6 3 4 4 3 4 5 5
24 24 24 23 23 22 22 22 21 20 20 19 18 18 17 15 15 15 15 15 15 15 15 14 13 11 10 6 6 5 8 8 9 6 7 6 2 3 3 5 6 6 5
24 24 24 23 23 22 21 20 19 19 19 19 18 17 15 15 15 14 13 12 12 15 16 15 15 14 12 8 6 6 8 10 13 9 7 6 2 3 2 3 5 5 5
25 24 24 23 23 23 20 19 18 18 18 18 17 16 15 15 14 14 13 13 12 12 11 13 14 13 12 10 7 7 9 12 13 12 11 14 3 3 3 3 6 5 5
25 25 25 24 23 22 20 19 18 18 17 18 17 15 15 15 14 13 13 13 13 13 13 12 12 12 10 8 8 7 9 13 13 13 12 15 5 4 3 3 6 5 6
26 26 24 24 24 23 21 18 17 18 18 17 16 14 15 15 14 13 14 14 12 11 11 11 11 10 8 7 6 8 11 13 15 14 13 12 10 5 4 5 5 6 6
26 25 24 24 23 23 20 17 16 17 18 17 15 14 14 15 13 12 13 12 12 11 11 12 12 11 9 7 7 9 11 14 14 15 12 13 6 6 7 6 5 7 6